{"data":{"norad_id":55049,"intl_designator":"2023-001AS","name":"ICEYE-X21","alt_names":[],"object_type":"PAYLOAD","status":"ACTIVE","operator":null,"country":"FIN","launch_date":"2023-01-03","launch_site_code":"AFETR","launch_vehicle":null,"mission":null,"orbit_class":"UNKNOWN","rcs_meters":null,"size_class":null,"mass_kg":null,"dimensions":null,"purposes":[],"wikipedia_slug":null,"has_3d_model":false,"image_url":null,"decayed_at":null,"tle_current":{"epoch":"2026-05-25T05:39:17.255232Z","epoch_age_seconds":44848,"freshness":"FRESH","line1":"1 55049U 23001AS  26145.23561638  .00191072  16286-4  47652-3 0  9995","line2":"2 55049  97.3249 229.6038 0004933 180.7431 179.3838 15.95796241189941","mean_motion":15.95796241,"eccentricity":0.0004933,"inclination_deg":97.3249,"raan_deg":229.6038,"arg_perigee_deg":180.7431,"mean_anomaly_deg":179.3838,"bstar":0.00047652,"rev_number":18994,"period_min":90.237084347161,"perigee_km":282.80919904992,"apogee_km":289.38413198432,"semimajor_km":6664.2336655171,"source":"CELESTRAK","updated_at":"2026-05-25T13:37:58.812084Z"}}}